Retour au catalogue

THORAD DELTA 1 DEB

ActifSSO
NORAD 42625·DEBRIS·🇺🇸 United States

Lancé Nov 15, 1974 depuis Vandenberg Space Force Base

Loading…

Prochains Passages (prochaines 24 heures)

TLE

FraisSource: Space-Track

Époque: Sep 11, 2026, 21:26 UTC

1 42625U 74089GS  26254.89338522  .00000057  00000-0  72475-3 0  9996
2 42625 102.0449 230.8375 0005248  29.7604 358.0860 12.44295626582776

Suivez THORAD DELTA 1 DEB en temps réel avec AllMySat

Download on the App Store